GFSSE_sfc_30mbdewp_000.txt.gz
Dewpoint
64 66 69 70 69 69 68 68 68 68 68 68 69 68 67 67 66 66 65 65 65 64 64 64 66 64 63 64 66 66 65 66 63 64 63 64 65 66 66 66 65 65 64
64 66 70 69 69 69 69 68 69 69 69 68 68 67 67 67 67 66 65 65 65 65 65 65 66 66 67 66 67 66 67 66 67 65 63 63 63 65 65 64 65 64 64
64 66 68 69 69 69 69 70 70 70 69 68 68 67 67 67 67 66 65 65 65 64 65 65 65 66 66 66 65 66 66 66 65 66 65 61 60 63 63 62 66 65 65
64 66 68 70 69 69 69 69 69 69 69 68 68 68 67 67 66 65 64 65 64 64 64 64 63 66 66 65 65 64 64 64 65 65 64 58 61 63 63 64 66 66 64
66 68 71 71 70 70 70 70 70 70 70 69 69 68 67 66 64 64 64 64 63 63 63 63 63 62 63 64 64 64 65 65 64 63 61 59 62 61 63 62 64 65 63
66 69 70 70 71 71 71 70 70 70 69 69 68 67 66 65 64 64 63 62 61 60 61 62 62 63 64 65 65 64 63 63 64 61 57 60 60 60 62 61 65 65 65
63 67 69 70 70 70 70 70 69 69 68 68 67 66 66 65 63 62 62 61 60 60 59 59 59 60 61 62 63 63 63 63 61 59 58 62 60 60 63 60 63 64 63
58 64 65 68 68 68 68 68 68 67 67 67 66 65 65 64 63 62 61 61 60 60 59 58 58 58 59 59 60 61 60 60 59 58 59 63 60 56 61 60 62 62 61
52 54 59 63 65 65 66 66 66 66 66 65 65 65 64 63 62 61 60 60 59 58 58 57 57 57 56 58 59 58 58 58 60 59 57 60 62 61 61 62 62 61 60
51 53 56 59 60 61 63 64 65 65 65 64 63 63 63 62 61 59 60 58 58 58 57 57 56 55 55 56 57 57 54 56 56 57 59 60 61 61 61 62 62 63 61
49 53 54 55 55 61 61 62 63 63 63 63 63 61 61 62 61 59 57 58 58 58 58 57 56 54 53 54 56 57 56 53 55 52 59 59 59 60 61 62 62 62 62
50 51 56 56 56 54 51 60 61 60 62 62 61 61 61 58 57 56 58 60 59 59 59 58 57 56 56 55 53 56 56 52 50 49 57 56 56 58 60 61 61 62 62
49 50 58 59 57 55 52 53 55 56 56 59 59 58 58 57 59 59 61 61 61 61 61 58 58 57 54 53 49 48 48 48 48 48 52 51 51 54 56 57 59 60 60
48 50 59 58 58 56 56 52 53 54 54 55 57 57 57 57 56 54 53 50 49 50 51 52 51 52 52 49 43 42 43 46 42 41 50 49 47 50 51 53 54 55 57
47 50 55 58 57 58 55 56 56 55 56 54 54 55 55 55 55 54 51 50 49 48 48 49 48 49 49 45 42 39 40 42 41 41 46 46 42 46 47 48 50 53 54
46 51 57 58 56 53 53 54 56 55 54 55 51 49 51 52 53 52 50 50 48 48 49 47 47 49 49 47 43 41 39 41 41 43 44 44 44 44 48 49 50 52 53
43 45 59 63 56 50 51 54 54 47 46 47 48 48 48 49 50 52 51 50 51 51 49 49 50 49 49 48 45 43 41 42 42 41 43 44 42 45 50 52 51 52 53
45 46 58 59 53 48 52 49 49 50 49 48 49 48 49 49 49 50 51 50 51 53 50 50 49 48 48 47 47 46 41 41 42 42 42 41 42 40 47 52 54 52 49
42 45 53 54 50 47 49 48 48 48 48 46 44 47 46 46 49 48 48 50 51 50 50 50 49 48 48 48 47 45 45 43 40 41 41 41 41 41 43 48 52 51 50
42 43 49 51 46 45 48 48 45 44 44 45 45 44 46 45 45 46 47 48 50 49 47 48 50 48 47 47 47 46 47 46 44 42 40 41 41 41 41 41 49 50 50
45 43 50 49 48 46 46 43 42 43 42 43 42 41 41 44 43 44 44 45 43 44 45 45 44 43 44 47 46 46 45 46 48 47 44 41 40 40 39 40 45 44 45
48 49 48 46 43 41 41 42 43 42 41 41 43 42 43 42 41 39 41 41 43 43 42 44 46 43 40 41 42 42 39 39 42 43 44 44 41 40 39 39 42 41 41
45 43 42 41 41 42 41 40 39 39 40 40 41 42 42 42 39 39 39 41 42 41 40 41 41 41 41 40 40 40 37 36 38 39 40 41 44 45 47 48 41 41 42
44 43 41 40 39 40 40 40 39 39 40 42 44 44 44 40 39 37 37 39 40 41 39 42 39 41 41 39 41 42 41 40 39 38 40 41 42 45 47 46 46 45 40
44 43 42 40 39 39 39 39 40 44 45 44 43 41 39 39 37 36 36 37 40 39 40 41 39 41 42 41 40 38 38 36 37 36 35 36 38 40 44 48 47 47 45
43 42 41 38 37 39 40 41 40 38 38 38 38 37 36 35 35 36 37 37 40 39 39 40 42 41 40 40 40 38 37 36 34 34 33 34 35 36 39 41 47 46 46

GFSSE_sfc_30mbdewp_006.txt.gz
Dewpoint
68 69 69 69 69 69 69 69 69 69 68 68 68 68 68 67 67 67 67 67 66 65 65 66 66 66 68 68 67 67 67 67 66 64 64 64 62 62 63 65 64 64 65
69 69 69 69 69 69 69 69 69 69 69 68 69 68 68 67 66 65 65 65 65 64 64 65 65 65 65 65 65 66 66 65 65 64 62 62 62 62 63 63 63 63 65
69 69 69 69 70 70 70 70 69 69 69 68 68 68 67 66 64 65 65 65 64 63 62 62 62 62 63 64 65 65 65 65 64 63 62 61 61 62 62 61 62 63 65
68 69 68 70 70 70 70 70 69 69 69 69 68 67 66 65 64 64 64 64 62 61 61 62 63 63 64 64 64 64 64 64 63 63 61 62 63 62 60 64 63 63 64
68 69 69 70 70 70 70 70 70 70 70 69 67 66 65 64 64 63 62 61 60 60 60 60 60 62 63 63 64 64 64 63 62 62 61 62 59 59 60 62 63 63 64
69 69 69 70 70 70 70 69 69 69 69 67 66 66 64 64 62 62 61 60 59 59 59 59 59 59 60 61 61 61 60 60 61 61 61 62 60 60 61 63 63 63 64
68 70 70 70 70 70 69 69 68 68 68 67 67 65 64 63 62 61 60 59 59 59 58 58 57 57 57 58 59 59 58 58 59 58 60 61 59 59 60 62 61 62 62
67 69 70 70 70 70 69 68 67 66 66 66 66 65 63 63 62 61 59 59 58 57 57 57 56 56 56 56 56 57 58 58 58 57 59 62 61 61 59 61 62 61 61
69 69 69 69 68 67 67 66 66 66 65 65 65 64 62 61 61 60 59 58 58 56 56 55 55 55 55 55 54 54 55 58 57 54 58 61 60 63 61 59 60 62 62
66 66 66 66 65 65 65 65 65 64 63 63 63 62 61 60 59 60 59 58 58 56 56 56 56 55 55 54 55 56 55 57 55 54 57 60 63 63 63 62 63 63 64
62 63 63 62 62 63 64 64 64 63 62 62 62 62 62 61 59 59 60 57 59 57 57 58 58 57 55 55 55 55 55 54 54 53 57 60 61 60 60 61 63 63 63
58 60 59 60 60 61 61 63 62 62 62 61 62 62 62 62 62 59 59 60 59 60 59 60 60 60 58 56 55 52 46 49 49 48 54 58 60 59 56 57 61 63 63
56 58 59 60 60 59 59 60 61 62 61 62 62 62 62 62 59 61 59 59 60 59 59 60 59 58 57 56 55 52 44 41 42 45 44 53 59 56 55 54 54 59 62
55 56 58 60 60 57 59 60 60 60 61 62 62 60 59 58 54 54 54 55 54 54 55 57 57 56 54 55 54 52 44 39 39 42 42 47 53 56 55 53 53 56 58
54 56 57 57 56 55 55 58 58 59 60 61 60 59 56 55 52 52 52 51 50 50 50 49 51 49 48 49 49 47 44 40 37 39 41 45 50 53 53 50 49 50 52
56 57 59 58 58 55 56 56 56 56 56 57 58 56 53 52 54 53 51 51 50 52 52 51 49 49 49 50 50 49 47 43 38 37 40 42 50 51 51 50 49 49 49
56 58 58 58 57 54 54 56 56 50 51 53 52 51 51 51 51 51 49 47 49 50 49 49 49 49 48 48 47 48 49 47 44 40 39 40 44 50 51 50 49 49 49
58 58 60 54 56 53 53 53 50 49 49 49 51 48 49 49 48 46 43 43 46 46 46 44 46 45 44 45 46 45 46 47 46 44 43 42 42 45 49 51 50 50 51
59 59 57 58 57 54 52 51 49 48 47 45 44 43 46 44 43 42 41 41 44 44 43 44 42 44 41 41 40 39 42 44 45 47 45 44 43 44 44 46 50 50 51
58 57 55 57 56 51 47 46 45 44 44 41 40 42 43 42 42 41 41 43 44 43 40 40 39 39 41 42 38 38 40 41 42 44 47 47 47 47 46 44 43 49 51
47 49 48 50 48 43 45 43 42 39 40 40 42 43 43 44 43 42 43 42 43 41 40 39 40 40 37 39 37 36 38 36 40 41 45 44 44 43 42 41 46 44 48
42 43 43 42 43 44 44 44 43 41 41 43 44 42 43 41 40 39 38 39 41 39 38 39 41 39 40 40 39 40 31 34 34 39 41 39 41 41 41 41 44 46 46
38 38 38 39 40 40 40 39 40 41 42 43 40 41 38 37 38 37 37 38 39 40 38 38 40 40 39 41 42 40 36 35 37 39 36 35 36 37 40 43 41 39 46
39 38 37 37 37 38 38 38 39 41 40 42 42 38 34 36 36 36 37 38 40 39 38 40 41 40 39 38 40 40 39 37 34 33 34 34 35 34 37 40 37 39 47
40 39 38 38 38 37 37 38 40 39 38 41 37 33 32 35 35 36 38 38 37 38 38 39 40 39 40 39 39 39 38 37 37 34 29 31 32 33 35 36 36 40 41
40 38 37 36 36 38 37 37 39 37 38 35 32 31 31 34 34 36 36 36 36 37 37 37 36 37 37 36 37 37 37 35 34 34 31 33 31 32 34 34 35 36 37

GFSSE_sfc_30mbdewp_009.txt.gz
Dewpoint
68 69 69 70 69 69 69 69 68 68 68 67 67 67 67 66 66 66 66 66 65 64 65 65 65 65 65 66 66 66 66 65 65 64 63 62 61 60 63 65 62 64 65
68 69 69 69 69 69 69 69 68 68 68 67 67 67 66 65 65 65 65 64 63 62 62 63 63 64 64 64 65 65 65 65 64 63 61 62 62 62 62 63 64 64 65
68 69 69 69 69 69 69 69 69 69 68 68 67 67 66 64 64 64 64 63 61 61 61 61 62 62 63 63 64 64 64 64 64 64 63 61 60 62 62 64 61 63 65
68 68 69 70 70 70 69 69 69 68 68 68 67 66 65 64 63 63 62 62 61 60 60 59 60 61 62 63 63 64 63 63 63 63 61 61 63 62 59 61 63 63 64
68 68 70 70 70 70 70 70 69 69 69 68 67 66 64 63 62 61 61 60 59 59 58 58 58 58 60 60 60 60 60 60 62 60 60 61 61 60 60 61 62 63 64
68 69 69 69 70 70 70 70 69 69 68 67 66 65 64 63 61 60 60 59 58 57 57 56 56 57 57 58 58 57 58 58 59 57 58 61 62 61 61 60 63 63 63
68 69 69 69 69 69 69 69 69 68 66 66 66 64 63 62 61 60 59 58 58 57 56 56 56 56 56 56 56 56 57 58 58 55 56 59 61 62 61 61 62 61 63
68 69 69 69 69 69 69 68 67 67 67 66 65 64 63 62 61 59 58 57 57 56 56 56 56 56 56 55 55 55 56 57 57 54 55 61 62 63 62 60 62 61 62
66 67 69 69 69 69 67 66 65 65 65 65 64 64 63 61 60 58 58 58 57 55 55 56 56 55 56 55 55 55 55 57 55 54 55 58 61 63 63 61 62 61 61
66 66 67 67 67 66 66 65 64 64 63 64 64 62 61 59 59 59 58 58 58 55 56 56 56 56 55 56 56 56 53 53 51 51 53 57 61 62 61 61 62 63 63
65 65 65 65 64 64 64 64 64 63 62 62 62 62 61 60 59 58 59 59 59 58 57 57 58 58 57 56 55 56 52 47 48 47 48 53 60 61 60 60 61 62 63
62 63 63 62 62 62 63 63 62 62 61 61 61 61 61 61 60 59 59 59 60 60 60 60 60 60 60 57 54 55 50 44 42 42 45 50 53 56 59 57 58 59 61
58 60 60 60 60 61 60 62 61 61 61 61 61 61 61 61 61 60 60 58 59 59 58 59 58 58 57 56 55 54 52 45 40 39 41 45 51 56 56 55 56 55 58
57 57 59 59 59 58 60 60 59 60 61 61 61 61 60 59 56 56 55 53 51 51 50 54 55 55 54 52 53 54 53 47 41 39 40 43 46 53 52 52 52 53 55
56 57 59 60 58 58 58 58 59 59 60 61 61 60 59 56 52 52 52 51 51 51 51 50 49 49 48 49 50 49 49 47 44 41 39 41 43 45 49 50 52 51 52
55 56 58 59 58 56 56 58 58 59 60 60 60 59 57 54 53 53 50 49 49 50 49 49 48 48 48 48 45 47 48 48 46 43 41 40 41 46 51 51 50 51 51
55 56 57 58 58 55 56 56 57 57 56 58 56 53 52 52 51 48 45 44 45 48 46 45 45 45 42 43 42 44 44 44 44 45 44 43 42 43 46 51 53 54 53
56 57 59 59 57 56 55 56 52 50 50 52 51 49 48 47 47 45 42 42 44 46 45 43 44 40 40 41 40 39 40 43 42 46 47 45 45 45 45 47 48 51 53
58 58 57 60 59 57 53 51 51 49 46 45 44 47 45 44 43 42 42 44 45 44 42 41 40 41 39 40 38 38 38 39 38 46 45 45 44 43 41 41 46 47 48
56 56 57 55 53 51 48 46 47 46 44 44 43 43 43 44 42 42 41 43 43 40 39 39 39 40 40 41 38 35 35 35 37 45 43 42 40 40 39 39 42 44 46
50 51 51 50 48 46 45 45 45 41 42 43 44 44 41 41 38 37 38 38 39 38 38 40 40 38 37 41 38 37 35 32 36 42 42 41 39 39 38 39 40 39 41
46 46 45 44 44 45 45 45 44 43 43 46 42 39 39 39 37 36 36 38 39 38 37 38 39 38 39 41 40 39 34 34 38 38 39 37 37 39 38 37 38 33 33
41 40 40 40 41 41 42 43 41 42 43 42 41 37 36 37 36 36 37 39 39 39 38 40 40 39 38 39 41 39 35 34 36 37 34 35 35 35 36 37 38 35 36
37 37 37 37 37 38 39 38 38 38 39 42 39 34 34 36 36 37 38 38 38 38 38 40 40 39 39 38 39 39 38 38 34 31 33 31 34 33 34 35 35 36 38
38 37 37 38 37 37 38 38 40 40 39 39 34 32 32 35 37 37 36 36 37 37 37 36 36 35 35 34 35 35 36 36 36 33 31 30 32 33 33 35 35 35 36
40 39 37 38 38 39 38 38 40 38 37 32 34 35 33 34 36 37 37 37 37 36 36 35 35 34 34 35 35 35 35 34 34 34 32 31 31 32 33 34 34 34 34

GFSSE_sfc_30mbdewp_012.txt.gz
Dewpoint
67 69 69 70 70 69 68 67 67 67 67 67 67 66 66 65 65 65 66 65 64 63 63 64 64 64 64 64 65 65 66 65 65 64 63 62 63 62 64 63 62 64 65
68 69 69 69 69 69 68 68 67 68 68 67 67 66 65 65 65 65 63 62 61 60 61 62 62 62 63 63 64 64 64 64 65 65 64 62 62 62 62 62 63 64 65
68 69 69 69 69 69 69 68 69 68 68 67 67 66 64 64 63 63 62 62 60 60 60 60 60 61 62 62 63 63 63 63 63 63 62 61 61 64 63 63 62 63 64
68 68 69 69 69 69 69 69 69 68 68 67 67 65 64 63 62 61 62 62 59 58 57 57 57 58 58 59 59 58 58 59 61 61 60 61 61 64 62 61 62 63 64
68 69 69 69 69 69 69 69 69 69 68 68 66 65 64 62 61 60 60 60 58 56 55 54 54 55 56 57 57 56 57 58 58 55 56 59 62 60 62 62 63 63 63
68 69 69 69 69 70 69 69 69 69 68 67 66 64 63 61 60 59 59 57 56 55 54 55 55 56 56 56 56 57 58 58 56 54 55 59 60 62 63 62 63 63 62
68 68 69 69 69 69 69 69 69 68 67 66 65 64 63 62 60 59 58 57 56 56 56 56 57 57 56 56 56 57 56 58 55 53 54 60 61 63 63 62 62 62 61
67 68 68 68 68 69 69 69 68 67 66 66 65 64 63 62 60 58 58 57 56 57 57 58 57 57 57 56 56 56 55 58 53 52 54 56 61 63 62 62 63 62 60
67 68 68 68 68 68 68 67 67 66 66 65 64 63 63 61 59 58 58 58 56 56 56 56 57 57 57 57 56 56 54 54 50 51 51 53 59 61 61 60 61 63 62
65 65 66 66 68 67 66 66 64 64 64 64 63 62 61 60 59 59 58 58 58 57 57 57 57 57 57 57 57 57 56 47 45 47 47 50 57 59 61 60 60 61 62
65 65 66 66 66 65 64 64 64 63 63 62 62 61 60 58 58 58 59 59 59 59 59 59 59 59 59 58 57 56 56 48 43 43 43 46 54 53 55 59 60 60 60
62 63 64 65 64 63 63 63 62 61 61 61 61 61 60 60 59 60 59 59 60 60 60 60 60 60 59 57 55 55 53 51 46 42 41 46 51 50 53 56 59 59 58
63 63 63 63 62 61 61 62 60 61 60 60 60 60 60 60 60 59 59 58 57 56 54 55 56 56 56 55 53 53 53 53 49 45 42 46 50 51 51 51 54 56 57
59 61 61 60 60 60 60 60 59 60 60 60 61 61 60 59 58 56 54 51 50 50 50 51 51 52 50 49 50 51 51 50 48 46 44 45 46 48 48 48 50 54 56
56 58 58 59 58 59 58 59 59 59 60 60 60 61 59 57 53 52 51 51 50 51 50 48 48 48 48 47 46 47 47 46 45 45 44 45 47 49 50 51 51 50 51
56 57 58 59 59 57 58 58 58 59 60 60 60 59 57 54 53 52 49 48 47 48 47 47 47 46 45 44 41 43 42 43 43 45 45 45 46 48 49 50 51 52 53
55 57 58 59 57 57 57 57 58 58 57 58 57 54 53 52 52 47 44 43 44 47 45 44 44 41 40 41 39 40 38 40 42 46 45 45 43 44 44 44 46 49 51
57 58 59 59 59 59 57 57 55 52 53 52 51 51 48 46 44 43 43 44 45 43 41 41 42 39 40 40 38 37 37 38 39 46 44 43 42 39 39 41 42 42 43
58 59 58 59 59 58 55 54 51 48 47 46 45 44 44 44 43 42 43 43 41 39 39 39 39 38 38 39 37 37 35 36 39 45 43 40 39 39 38 38 39 39 39
58 57 57 56 55 53 49 48 48 46 47 46 44 42 42 41 40 40 39 39 39 37 38 38 36 38 39 40 37 36 36 36 41 43 41 39 39 38 37 36 36 35 34
53 55 52 53 51 48 47 46 43 43 45 44 42 40 40 38 37 36 37 38 38 37 38 39 38 37 36 41 38 33 36 35 39 41 40 38 37 38 37 36 36 36 32
50 52 50 47 46 47 45 46 47 44 45 42 39 37 38 36 37 37 38 39 38 37 38 39 38 36 37 41 39 38 32 33 37 35 38 36 35 36 35 34 35 36 34
45 44 43 44 43 44 45 43 42 43 44 41 39 34 36 36 37 37 38 38 37 37 38 38 38 37 36 38 40 37 34 31 35 35 33 35 33 34 34 34 35 36 35
37 38 38 39 38 39 39 38 38 38 39 40 35 33 35 36 36 37 36 37 36 38 39 38 38 36 37 34 37 36 36 37 33 29 32 32 33 33 34 35 35 36 36
38 38 38 38 39 38 38 40 40 39 40 35 33 34 33 35 35 35 36 37 38 37 36 36 35 33 34 32 33 34 34 35 35 34 29 29 31 32 33 34 35 36 35
39 38 38 39 38 39 38 39 38 38 33 32 35 35 35 35 36 36 37 37 37 36 35 34 34 33 33 32 32 32 33 32 30 30 29 29 29 30 30 33 34 35 35

GFSSE_sfc_30mbdewp_015.txt.gz
Dewpoint
66 67 69 68 69 68 68 68 68 68 68 68 67 66 66 65 66 66 65 64 62 61 62 62 63 63 64 64 64 64 64 64 65 65 65 63 62 63 63 63 62 59 65
67 68 69 68 69 68 67 68 68 68 68 67 66 65 65 65 64 63 63 62 61 60 61 61 61 61 61 62 62 62 62 62 63 63 63 61 61 64 63 63 63 61 65
68 68 67 67 69 68 68 68 69 68 67 67 66 64 64 63 63 62 62 62 60 58 58 57 57 57 57 57 56 56 57 59 59 60 61 59 59 64 63 63 64 64 64
68 68 66 67 69 68 68 69 69 68 67 67 65 64 63 62 61 61 61 60 58 55 54 54 54 54 55 56 56 57 57 58 57 56 56 59 61 62 63 62 62 63 63
68 67 67 68 69 68 69 69 69 69 68 67 65 64 62 60 60 60 60 59 55 54 54 53 54 54 55 56 57 58 58 58 56 52 55 60 60 62 63 63 61 61 63
67 67 68 68 69 69 69 69 69 69 68 67 65 63 62 60 59 59 59 57 56 56 56 56 56 56 56 57 57 57 58 58 53 53 56 60 61 63 63 63 63 62 62
67 67 67 68 68 69 70 69 69 68 67 66 65 64 62 60 58 58 58 57 57 57 57 57 57 57 57 57 57 55 57 58 52 52 53 55 59 63 62 61 63 63 61
67 68 68 69 69 69 69 69 68 67 66 65 65 64 62 61 59 59 58 57 58 58 58 58 58 58 58 58 58 57 55 55 45 45 49 51 59 60 61 61 62 63 62
67 67 68 68 68 68 68 68 67 66 65 64 64 63 62 60 59 59 59 59 58 58 58 58 58 58 59 59 58 58 57 50 45 44 43 43 56 57 59 61 61 61 61
66 67 67 67 67 67 67 67 66 65 64 64 63 62 60 59 58 58 57 58 59 59 59 59 59 59 59 59 58 57 57 50 47 45 42 41 54 53 53 56 60 60 60
65 66 65 65 66 67 66 65 64 64 63 63 62 61 59 58 58 58 59 59 60 60 60 60 60 60 60 57 56 56 55 51 51 47 45 46 51 52 51 54 59 61 60
63 64 65 65 65 66 63 63 62 61 60 60 60 61 60 60 60 60 60 59 59 59 58 57 58 58 57 54 52 52 51 53 51 50 48 49 51 51 51 53 55 57 58
62 62 64 64 65 64 62 62 60 60 60 61 62 62 61 61 61 60 60 57 56 53 52 53 54 53 54 52 51 51 50 49 48 47 46 50 52 53 53 52 52 54 56
62 63 64 65 63 62 61 61 60 59 60 60 61 62 62 61 59 57 53 53 53 53 52 51 50 52 51 49 48 49 47 43 41 41 43 50 51 53 54 55 55 55 55
59 60 62 61 61 60 60 60 59 60 61 61 61 62 61 59 56 55 54 51 50 49 48 48 48 48 46 45 45 44 41 41 40 39 42 50 51 51 51 52 53 54 54
56 58 59 60 59 59 59 60 60 61 61 62 62 61 60 57 56 54 49 46 46 48 47 46 47 44 42 41 40 42 40 39 41 41 40 44 44 44 45 46 46 47 48
55 57 59 59 59 59 59 59 59 56 57 58 58 57 55 54 50 47 46 47 47 46 45 45 44 42 41 38 37 36 37 37 38 44 43 41 39 40 42 42 42 42 42
57 58 60 59 59 59 58 57 52 53 54 54 53 52 50 48 48 48 46 46 45 43 43 42 40 38 38 37 35 35 36 33 37 45 41 40 39 37 37 39 39 38 38
58 59 59 60 58 58 57 53 51 50 50 48 49 48 47 46 46 45 44 43 42 40 40 38 37 38 36 34 28 31 29 27 37 41 41 40 39 38 36 35 35 34 36
58 59 59 58 55 54 53 50 50 50 49 47 46 43 42 42 42 41 41 42 39 38 38 37 36 35 36 35 28 29 28 31 40 40 37 37 38 37 36 35 34 31 33
57 57 56 56 53 50 47 49 49 49 47 43 40 41 40 39 39 40 39 39 39 37 39 37 35 33 30 36 30 25 26 36 39 36 36 36 35 34 34 34 32 30 29
55 54 55 53 49 48 49 49 48 47 45 40 38 39 38 39 39 38 40 38 39 37 39 39 36 31 33 38 29 26 19 21 29 34 31 34 33 35 33 33 33 32 32
55 52 47 47 47 47 47 45 45 46 44 41 37 36 37 38 38 39 40 40 39 39 38 39 38 36 32 34 39 29 23 20 28 27 29 30 34 32 31 31 31 31 33
44 44 43 43 41 41 42 42 43 41 41 40 36 35 36 39 39 38 39 40 40 39 39 38 36 35 31 26 26 32 31 30 23 21 23 26 29 27 28 30 30 32 33
39 40 41 41 41 41 42 43 42 41 39 36 36 39 38 39 39 38 38 39 39 38 38 36 32 29 27 24 23 24 24 24 24 26 18 19 21 22 25 24 28 29 28
40 41 41 39 38 40 40 41 40 38 36 36 38 38 39 39 39 40 39 39 39 37 35 33 33 30 28 26 24 23 20 19 18 21 20 18 17 16 18 21 23 23 21

GFSSE_sfc_30mbdewp_021.txt.gz
Dewpoint
60 62 69 69 69 68 68 68 68 68 68 67 66 66 65 64 64 65 64 64 63 62 61 61 59 58 58 58 58 59 60 61 62 62 62 63 64 64 64 64 62 59 64
61 61 69 69 68 68 68 68 68 68 67 65 65 65 64 64 64 63 63 61 59 57 56 55 53 52 53 55 56 56 56 57 58 59 60 63 63 64 64 63 63 61 62
62 61 64 68 68 68 68 68 68 67 65 65 64 63 62 62 62 61 61 60 56 55 53 52 52 55 57 57 58 58 58 58 54 56 58 58 60 62 61 62 62 63 62
62 61 62 68 68 68 69 69 68 67 65 64 63 62 61 61 60 60 58 58 55 54 53 52 55 55 55 57 57 57 58 57 57 56 50 49 59 61 61 61 61 61 61
63 62 64 68 68 68 68 68 68 67 66 65 63 61 60 59 59 58 58 58 57 56 55 55 55 56 56 55 55 55 56 54 54 53 49 51 53 62 62 61 58 60 61
64 65 67 67 67 67 67 68 68 67 66 65 63 60 59 58 57 58 59 58 57 56 56 56 57 58 58 58 57 55 52 51 52 37 45 52 55 61 62 61 60 58 59
66 67 66 66 66 65 67 68 68 67 66 65 64 61 58 57 57 59 59 59 58 58 57 58 58 59 59 59 59 58 53 50 44 36 36 48 55 58 61 62 61 60 58
65 66 66 65 64 65 67 68 67 66 66 65 64 61 58 58 58 58 59 59 58 58 58 58 59 60 60 60 59 57 55 51 45 41 38 45 55 54 55 58 61 60 59
63 66 64 63 64 66 67 67 66 65 65 64 64 62 60 60 60 59 59 59 59 59 59 60 60 60 60 58 57 54 53 53 51 41 40 45 55 54 54 55 56 58 58
63 64 64 64 63 65 66 66 65 64 63 63 62 60 58 58 58 58 59 60 60 60 61 61 61 59 57 56 52 46 46 50 42 40 46 52 56 56 55 54 55 56 57
64 64 63 61 61 61 63 64 63 63 62 61 59 57 56 53 55 54 55 58 59 59 58 56 56 55 52 53 53 44 45 42 42 39 48 55 56 56 56 56 55 56 56
61 61 62 62 60 58 55 58 54 52 51 54 54 54 54 55 55 54 54 56 56 52 54 52 52 51 53 45 43 43 42 42 38 38 47 54 54 56 57 58 58 58 58
60 62 63 65 63 55 55 52 49 51 55 57 58 57 57 55 55 54 51 51 52 50 50 49 49 47 48 46 44 44 43 41 37 37 51 54 53 54 55 56 56 56 56
57 61 63 64 61 55 52 49 51 52 55 54 56 59 58 57 55 52 50 50 51 49 49 48 47 47 45 43 43 43 41 40 38 38 50 51 51 51 51 52 51 51 51
51 56 60 59 57 56 52 55 56 56 60 61 60 61 61 58 59 59 58 54 50 49 48 47 46 44 43 41 41 40 41 39 39 38 39 49 49 48 48 48 47 47 47
49 54 55 55 55 53 56 58 60 60 60 62 63 63 62 60 57 55 55 54 50 49 48 45 44 42 41 40 39 38 39 38 38 38 38 42 47 46 46 45 45 44 45
48 53 54 55 55 57 60 57 57 57 57 59 61 61 60 60 58 56 53 52 49 47 45 42 42 40 38 37 37 36 35 34 35 34 35 38 42 46 45 43 41 40 40
48 54 56 55 58 58 57 58 58 58 57 59 59 59 58 57 53 53 51 48 48 44 42 41 39 38 38 37 36 35 34 32 32 34 33 35 38 38 42 39 37 34 36
50 55 58 58 59 58 59 58 57 57 56 56 54 51 51 50 49 47 45 45 44 41 40 40 39 40 38 38 36 33 34 31 32 28 29 32 39 37 36 35 36 34 34
49 55 59 60 59 59 59 57 55 56 54 51 48 46 45 45 45 43 43 44 42 40 40 42 42 41 39 36 31 33 34 28 27 27 32 34 32 31 34 33 32 31 33
54 57 60 59 60 59 56 55 54 49 48 47 44 44 44 43 42 42 40 40 41 41 41 40 40 39 32 30 30 31 30 31 30 27 26 29 31 29 30 30 31 30 29
55 57 59 58 58 57 54 51 49 48 45 43 43 43 42 41 41 39 42 41 40 39 37 35 35 35 32 30 30 30 26 24 24 26 26 26 28 27 26 28 28 28 28
56 57 56 56 55 51 50 49 48 46 44 41 42 40 41 42 41 40 40 39 38 35 32 33 34 35 31 30 29 27 24 21 24 25 23 23 28 25 26 24 24 23 25
55 55 53 51 50 50 45 42 42 41 41 42 40 41 41 41 41 39 37 37 36 35 34 33 31 34 32 29 29 28 28 27 24 20 18 18 20 19 22 20 19 20 20
50 49 48 47 43 43 44 44 43 42 41 40 39 37 35 31 28 27 26 28 35 36 34 35 35 33 32 32 29 29 24 22 20 17 15 15 15 15 16 17 17 18 18
46 46 44 41 42 43 43 43 42 39 36 33 30 25 23 21 21 21 23 26 28 33 35 34 34 34 34 33 27 25 22 19 17 17 16 17 17 15 15 17 20 18 19

GFSSE_sfc_30mbdewp_024.txt.gz
Dewpoint
60 66 69 69 69 69 68 68 69 68 68 67 67 66 66 66 65 65 64 63 61 58 56 55 53 53 54 55 56 56 56 58 60 62 63 64 64 64 63 63 62 61 64
62 66 69 69 68 68 68 68 68 67 67 66 65 65 65 65 64 63 62 60 58 55 53 53 55 56 57 58 58 58 58 57 56 60 63 62 63 62 62 63 64 63 64
61 65 66 68 68 68 68 68 68 66 65 64 64 64 64 63 62 62 60 58 57 53 53 55 54 54 55 56 57 58 58 60 60 60 61 62 61 61 62 63 63 62 63
61 62 65 68 68 69 69 68 67 65 64 64 63 62 62 61 59 60 60 59 58 55 55 54 54 54 54 55 55 55 55 54 54 56 54 58 60 62 61 61 61 61 62
60 62 66 68 68 68 68 68 67 66 65 63 62 60 59 57 58 59 61 60 58 56 56 56 57 58 58 59 58 56 55 56 55 52 54 57 58 62 62 60 58 59 61
63 65 67 65 66 67 67 68 67 66 65 63 62 60 58 57 59 60 61 60 58 57 57 57 58 59 59 58 58 55 52 52 53 45 51 56 59 61 61 62 62 61 60
65 65 65 65 64 66 67 67 67 66 65 63 62 60 58 58 59 60 61 60 59 58 58 58 59 59 59 58 57 55 53 53 52 45 49 55 57 56 57 60 62 61 60
65 65 66 64 64 66 68 67 66 66 65 63 61 59 59 59 60 60 60 60 60 60 60 60 60 60 60 58 53 50 49 51 49 49 49 55 57 55 55 56 59 60 60
64 65 66 65 65 66 66 66 65 64 64 64 61 60 60 60 60 59 60 60 60 60 61 61 60 59 58 57 51 47 48 48 48 50 50 55 57 56 55 55 56 58 59
65 62 64 64 66 66 65 64 63 63 63 62 59 58 58 58 58 58 59 59 59 59 59 58 57 55 55 55 53 48 46 47 45 49 53 58 57 57 57 56 56 57 59
61 64 63 63 65 65 64 63 63 62 61 60 57 57 57 56 57 57 57 56 56 56 56 53 51 51 53 54 53 51 48 44 44 48 52 57 56 57 58 59 59 59 59
59 62 61 63 64 64 60 61 59 58 58 57 54 54 57 58 53 54 56 53 53 51 53 52 52 51 52 49 48 48 46 45 43 47 53 55 54 56 57 57 57 57 57
60 62 63 62 61 58 58 60 56 55 58 60 59 59 58 58 56 55 57 53 56 53 55 52 53 51 49 48 47 47 46 43 42 44 53 53 51 51 52 53 53 53 52
61 62 63 62 60 56 55 54 53 56 59 59 60 60 60 59 58 59 59 57 55 53 52 52 51 51 48 46 46 45 44 44 43 42 50 50 50 49 48 49 49 48 48
59 62 62 62 58 55 56 58 62 63 63 63 64 64 64 61 60 58 56 55 56 53 52 51 49 46 45 45 45 44 42 41 41 42 47 49 49 48 46 46 46 46 46
57 59 60 58 57 57 59 62 61 60 60 62 63 63 62 61 58 56 57 55 54 51 49 49 48 46 44 43 41 42 41 39 40 42 40 47 47 47 46 45 43 42 41
55 56 57 57 56 60 60 58 58 57 57 61 61 62 61 60 59 56 55 54 52 49 47 47 45 44 42 41 41 40 39 38 37 38 40 37 47 47 46 42 39 37 38
53 54 56 55 60 61 58 58 58 59 59 60 60 59 59 58 55 54 53 51 49 49 45 44 44 44 43 43 42 40 39 38 34 35 36 35 43 43 44 41 36 34 36
54 55 56 58 60 59 59 60 59 58 57 57 55 54 53 51 50 50 48 49 47 46 45 45 46 45 44 42 39 34 37 35 36 33 32 33 36 40 39 41 38 35 35
55 58 58 60 60 59 60 58 57 57 56 54 52 50 49 47 47 47 48 46 45 45 45 45 45 45 43 38 33 31 36 37 33 34 34 34 36 34 35 33 33 34 35
57 60 60 60 61 60 59 58 55 55 52 50 47 47 45 45 43 43 45 45 45 44 44 42 40 39 39 38 35 34 33 32 32 29 31 31 31 29 32 35 31 31 30
57 60 60 60 60 59 59 57 54 51 50 47 46 45 44 44 43 43 43 43 43 42 39 40 38 38 38 37 33 32 30 29 29 30 30 29 27 30 30 28 28 29 29
59 60 59 59 59 59 56 52 50 47 46 44 45 44 43 43 43 42 41 41 40 39 38 39 38 37 36 34 34 32 29 28 30 30 26 26 25 27 27 27 24 26 24
58 58 58 57 57 53 50 48 46 44 44 44 44 44 43 42 40 37 35 37 40 40 39 40 36 38 36 33 33 33 32 31 26 23 23 21 22 21 22 25 23 24 23
57 57 57 53 50 48 46 47 46 45 44 43 41 37 35 31 28 27 29 33 34 34 38 39 39 37 36 34 34 32 29 28 26 23 19 20 20 22 22 23 25 24 23
53 51 50 45 44 45 46 46 44 40 37 35 30 28 27 26 27 29 30 32 34 35 36 39 38 38 37 38 37 32 28 25 22 23 21 21 21 21 23 23 24 24 26

GFSSE_sfc_30mbdewp_030.txt.gz
Dewpoint
68 70 70 70 69 69 69 69 68 66 66 66 65 65 64 63 62 61 59 58 59 57 56 55 54 54 54 56 58 58 59 60 63 64 63 63 63 62 62 64 64 64 64
69 70 70 69 69 69 69 68 67 66 65 64 64 64 63 62 61 60 59 60 58 54 53 53 53 54 55 57 58 58 59 60 59 63 63 62 62 62 62 62 64 63 63
68 69 68 68 68 68 68 67 66 65 63 62 62 63 62 61 61 60 60 59 57 55 55 55 55 55 56 57 58 59 61 61 60 61 63 61 61 60 59 59 59 60 62
68 68 67 68 68 68 67 66 65 63 62 62 61 61 61 61 61 61 60 60 59 57 56 56 55 55 56 58 58 59 62 62 61 62 60 61 61 61 61 60 58 57 57
67 67 68 68 68 67 66 65 65 65 64 62 61 61 61 60 59 60 61 60 59 57 56 55 55 56 57 57 59 56 56 56 57 58 60 61 60 59 59 59 59 58 57
66 66 67 67 67 67 66 65 65 64 63 62 62 62 61 60 60 61 61 60 58 58 57 57 57 58 56 55 58 56 54 54 54 55 55 58 57 57 57 58 58 58 58
65 65 66 67 67 66 65 65 64 64 62 62 63 62 61 60 60 61 62 61 59 58 58 58 57 56 56 54 54 53 56 52 52 55 56 57 58 57 57 58 59 59 59
64 64 65 65 66 66 65 64 64 63 62 63 63 62 62 61 61 61 61 61 60 59 58 57 56 54 54 55 55 53 53 51 52 53 56 57 59 58 58 58 59 60 61
64 64 64 63 64 65 65 64 63 61 61 62 62 61 61 60 60 60 59 59 59 58 56 55 55 54 52 52 52 54 51 53 52 55 57 59 59 58 59 60 60 60 59
61 62 62 63 63 64 63 63 61 59 59 60 60 59 58 59 58 58 58 58 57 55 53 53 53 52 52 53 51 49 49 52 49 54 57 60 58 57 58 58 58 58 57
61 61 59 59 64 63 63 62 61 59 59 58 59 59 58 58 58 58 56 56 55 55 53 51 52 54 50 50 51 47 45 48 49 53 57 58 55 54 56 55 55 54 54
60 60 61 63 63 62 60 61 60 58 58 57 57 57 55 56 57 58 56 57 56 53 53 55 54 52 48 48 47 46 44 44 49 51 54 54 51 52 53 53 52 51 51
59 57 60 63 62 60 59 59 59 57 55 55 55 56 57 58 57 56 55 54 54 55 53 50 48 46 46 46 45 45 43 42 44 49 50 51 50 50 51 51 50 50 49
59 59 61 63 62 59 57 57 56 54 56 56 60 59 59 59 57 56 54 55 54 51 49 48 46 44 42 43 42 41 40 40 41 44 48 49 49 48 48 49 49 48 46
59 60 61 62 61 59 58 56 57 61 62 63 61 61 59 55 55 55 54 52 50 49 48 45 45 42 42 41 42 40 40 39 36 38 43 49 49 49 47 48 47 45 44
58 60 61 61 58 58 60 61 62 63 62 61 60 60 58 56 57 55 53 50 48 47 46 44 44 43 43 43 42 40 40 36 35 34 37 39 48 49 48 47 44 43 41
61 61 61 58 60 61 60 60 60 61 60 60 60 60 59 58 55 54 50 48 48 47 45 45 45 44 43 43 40 37 37 36 35 33 35 35 45 50 48 43 39 41 39
60 59 58 60 59 58 57 56 58 59 59 60 60 59 58 56 55 52 48 46 47 47 46 45 44 43 43 42 36 33 34 36 33 31 31 34 42 46 47 41 39 39 38
58 59 57 59 58 57 56 56 57 58 58 58 57 57 56 54 53 48 46 45 47 45 44 43 42 41 41 38 36 35 37 34 32 32 30 30 31 37 44 39 37 37 36
58 58 59 58 58 57 56 57 57 57 56 55 54 53 48 48 49 47 46 45 44 41 39 39 37 38 39 38 36 31 32 33 31 31 29 28 29 33 31 30 31 35 34
56 58 58 58 57 56 55 55 56 55 54 53 52 48 45 45 45 44 44 42 41 39 38 39 38 36 36 37 33 32 31 33 31 31 28 27 24 26 26 27 29 30 31
56 58 58 58 57 56 56 56 56 55 52 50 47 45 44 44 44 43 42 41 40 38 37 37 38 36 38 35 32 33 29 30 30 29 26 27 23 24 23 24 25 26 28
56 58 58 58 58 56 55 56 54 50 47 45 44 44 43 43 42 42 41 40 40 40 39 39 39 37 35 35 34 31 29 28 29 28 25 24 22 22 24 25 25 24 25
58 59 59 59 58 57 56 56 53 49 44 44 44 44 44 43 37 35 33 33 33 34 34 36 39 38 37 34 34 34 32 30 26 25 24 22 23 22 24 25 25 25 25
59 59 59 59 58 58 58 54 51 47 45 45 44 42 35 31 33 32 31 32 34 35 35 35 37 38 37 35 35 35 33 30 28 25 21 21 24 25 25 26 25 25 25
59 59 59 59 58 57 58 51 49 45 44 42 39 31 28 31 32 31 32 32 31 33 35 36 38 37 37 37 36 36 34 31 26 24 23 23 24 25 25 25 24 24 25

GFSSE_sfc_30mbdewp_033.txt.gz
Dewpoint
68 69 70 69 69 69 68 67 66 66 65 64 64 64 63 62 61 60 61 60 59 55 54 54 56 56 56 57 58 58 61 64 63 64 64 62 61 61 63 64 63 63 63
67 69 69 69 69 68 67 66 66 65 64 62 62 63 62 61 61 61 60 58 57 54 55 55 55 55 56 59 61 61 59 62 64 64 62 60 59 59 59 58 60 62 62
67 69 68 68 68 68 66 66 65 64 61 60 61 61 61 61 62 60 59 59 58 56 55 54 54 54 57 61 64 63 61 61 64 63 62 61 60 60 59 58 57 56 60
67 68 67 68 68 67 66 65 64 62 61 61 60 60 60 60 60 61 61 60 59 57 54 54 54 55 56 59 61 64 63 63 62 61 61 61 59 57 56 56 56 56 57
67 67 68 68 67 66 66 64 63 63 62 62 61 60 60 59 59 60 61 60 59 56 55 55 54 55 58 59 57 59 59 60 60 60 59 58 57 57 57 58 58 58 57
67 67 68 67 66 66 65 65 64 63 63 63 62 62 60 59 59 61 61 60 59 57 56 56 56 58 56 57 59 56 57 57 55 56 57 58 57 57 58 59 59 59 59
66 67 67 67 66 66 65 65 64 63 63 63 63 62 62 61 61 62 62 61 60 58 57 57 57 57 56 52 56 54 54 55 54 56 57 59 59 57 59 60 60 60 60
65 65 65 64 65 65 65 64 64 63 64 63 63 63 62 62 62 62 61 60 59 58 57 54 54 55 57 53 53 54 53 52 53 55 57 58 60 58 59 60 60 59 59
62 64 64 64 63 65 64 64 63 63 64 63 63 63 62 62 61 60 59 58 58 57 56 54 53 54 55 52 51 54 52 53 54 57 58 60 58 57 58 58 58 58 57
60 61 62 62 63 63 62 61 61 61 62 63 61 61 60 59 59 58 58 58 57 56 55 54 54 54 55 53 50 53 51 50 52 56 58 58 56 55 56 55 55 55 56
58 59 60 62 62 61 62 60 59 60 60 61 60 59 59 59 58 58 58 57 55 54 53 54 55 50 49 53 52 51 49 48 50 54 57 56 53 54 54 54 53 53 52
55 56 56 60 62 62 61 61 59 59 59 59 58 58 57 57 58 57 57 56 54 54 55 55 52 49 48 47 46 45 43 47 49 51 54 54 51 52 53 53 52 52 51
57 58 56 57 63 61 60 60 58 57 57 57 57 56 56 57 58 55 54 53 55 52 49 47 46 46 45 43 43 41 41 42 42 47 49 51 50 49 51 51 51 50 49
58 58 58 61 63 60 59 58 57 55 55 55 55 56 58 57 57 55 55 56 51 50 47 46 44 42 42 42 41 40 40 37 36 41 45 50 49 48 48 50 50 48 46
58 58 60 62 63 60 57 57 56 56 56 60 60 59 58 55 54 54 53 51 50 48 46 44 43 43 42 42 41 40 36 35 35 35 37 41 50 50 46 49 48 46 45
58 59 60 61 62 59 57 57 59 60 62 61 60 59 55 55 54 53 50 49 47 46 45 44 44 43 43 41 37 38 36 36 33 34 35 36 44 50 49 48 46 44 43
57 59 60 61 60 58 58 59 61 61 61 60 59 58 56 57 55 52 49 48 47 45 45 45 45 44 43 40 35 35 35 35 31 31 32 38 48 50 48 43 41 41 40
58 60 61 60 59 59 59 59 60 60 60 59 59 59 58 55 54 50 47 47 47 46 45 44 43 41 41 37 35 34 36 33 32 30 29 31 38 47 45 43 40 39 39
59 60 59 60 59 58 58 58 58 58 58 58 58 58 57 55 52 47 46 47 45 43 42 41 39 39 37 36 36 34 35 32 31 29 27 30 34 39 35 34 38 37 36
60 60 59 59 58 57 56 57 57 57 56 56 55 55 52 52 48 46 46 44 42 40 39 38 36 38 38 37 35 32 32 32 32 29 27 27 27 28 28 29 31 31 37
59 58 59 57 57 56 55 55 55 54 54 53 53 47 48 48 46 45 43 42 41 39 38 38 37 36 36 35 33 32 32 32 30 29 27 24 24 24 24 24 28 28 28
58 58 58 57 57 55 55 55 56 55 54 52 50 46 46 45 45 43 42 41 39 38 38 38 37 36 38 35 32 32 29 30 31 30 27 24 22 24 24 25 24 25 26
57 57 58 58 57 55 55 56 54 50 49 47 45 44 44 44 43 43 41 40 39 39 36 37 38 37 35 35 34 32 30 27 29 29 26 23 22 23 24 24 24 25 24
55 57 58 58 57 56 55 55 53 51 49 45 44 43 44 43 40 36 34 34 34 34 34 36 37 37 37 35 34 35 32 30 28 27 26 23 24 23 24 25 25 24 25
56 57 58 58 58 57 55 55 53 50 46 45 44 43 34 34 33 32 33 34 33 34 35 35 37 38 38 35 34 34 34 32 30 28 25 23 24 25 25 26 25 25 25
57 58 58 58 58 58 56 55 54 49 45 43 42 36 31 33 32 32 32 32 33 33 31 36 37 37 37 37 36 36 34 32 29 26 25 24 24 25 26 26 25 25 25

GFSSE_sfc_30mbdewp_036.txt.gz
Dewpoint
67 69 69 68 68 67 67 67 67 66 66 65 64 63 63 61 61 62 61 59 58 57 57 56 57 58 58 58 61 64 64 65 64 63 61 59 59 58 59 61 63 63 63
68 69 69 68 67 66 66 66 66 65 64 63 63 62 62 62 62 61 59 59 59 57 56 57 58 61 61 62 60 63 64 65 64 63 61 60 59 58 57 57 58 60 62
68 68 69 68 67 66 66 66 65 64 63 61 61 62 63 62 61 60 60 60 59 58 56 57 60 63 64 63 62 63 64 64 64 63 62 59 56 56 56 56 56 57 58
67 68 68 68 66 66 66 65 63 62 62 61 61 61 62 61 61 62 61 60 59 58 55 55 58 60 63 65 64 65 63 63 62 61 59 58 56 57 57 57 57 57 57
67 67 68 68 66 66 65 64 63 62 62 62 61 61 61 60 60 61 61 60 59 58 54 54 55 57 59 62 61 62 61 60 59 58 58 57 57 58 58 59 59 59 58
66 67 67 67 66 65 65 64 63 63 63 62 62 61 61 61 60 62 61 60 59 58 55 54 54 58 59 59 60 58 58 58 57 57 58 59 58 58 59 60 60 60 60
66 66 67 66 66 65 65 64 63 64 64 63 62 62 62 62 62 63 62 61 60 60 58 57 57 56 58 57 57 57 57 56 56 57 58 59 59 57 58 59 59 59 60
65 66 66 66 66 65 64 64 64 65 64 64 63 63 63 63 63 62 60 59 58 58 59 59 57 55 56 55 55 54 54 54 55 57 58 58 58 57 57 58 58 58 57
65 64 64 62 60 63 64 64 64 65 64 64 64 64 63 62 61 60 59 59 58 56 57 58 57 54 54 57 55 54 55 56 56 58 59 58 56 56 55 55 56 56 56
61 63 61 60 59 63 63 63 64 64 64 63 63 61 60 59 59 59 59 59 57 55 55 55 58 55 52 55 56 54 52 53 55 58 58 57 55 54 54 53 53 54 54
59 60 59 60 62 61 61 61 62 63 62 61 60 59 59 59 58 56 58 57 55 55 56 56 53 55 54 54 52 51 49 49 52 55 57 55 52 54 54 53 52 52 52
57 58 60 59 61 61 60 59 59 60 60 59 58 57 57 57 56 57 57 56 56 56 57 53 52 50 47 45 45 44 44 45 48 50 52 54 52 52 53 52 52 51 50
55 57 58 58 59 60 60 58 57 58 57 57 57 56 56 58 57 55 54 54 52 50 47 46 44 43 42 41 41 40 38 38 42 46 49 52 52 48 51 52 51 49 48
55 56 57 58 60 61 60 57 56 55 56 56 56 56 57 57 55 54 55 52 49 48 44 43 43 43 42 41 40 37 36 35 36 36 38 48 51 51 47 51 50 48 47
57 56 55 58 62 60 58 57 55 55 55 55 56 57 58 56 55 54 53 51 49 47 44 43 43 43 41 39 38 36 36 34 34 35 35 41 46 51 48 50 50 47 46
57 57 55 58 62 60 57 56 55 56 57 59 59 58 56 55 54 52 50 48 46 45 44 44 43 43 40 38 37 36 35 32 31 32 37 42 51 52 50 47 47 45 44
58 58 58 60 62 60 57 56 57 58 61 60 59 57 55 55 53 50 48 47 45 45 45 45 43 43 39 36 34 36 34 32 30 29 32 37 47 48 46 43 43 41 41
57 58 60 61 60 59 57 57 58 60 60 59 58 57 56 56 53 49 48 46 46 45 44 43 41 40 37 36 34 36 33 32 29 28 33 39 45 42 41 43 41 40 40
57 58 59 60 59 59 57 58 59 60 59 59 59 58 56 54 51 47 47 46 45 44 42 39 39 38 35 36 35 35 33 31 29 27 30 30 33 31 29 36 40 40 36
57 60 59 59 59 58 57 58 58 57 57 57 57 57 55 53 48 46 46 44 42 40 39 37 36 38 37 36 34 33 32 32 31 28 25 26 26 26 26 27 30 32 36
58 59 59 58 57 57 57 57 56 55 55 54 54 52 52 49 46 46 44 42 41 39 38 37 37 35 37 35 33 33 33 32 31 29 27 24 24 23 24 25 28 27 27
58 59 59 58 57 56 56 55 55 54 53 53 50 47 49 47 45 44 42 41 39 38 38 38 37 37 37 35 32 32 30 30 30 30 27 25 23 24 24 25 24 25 25
58 58 58 58 57 56 55 55 53 51 50 49 46 44 46 45 44 43 41 40 39 37 35 37 37 36 34 35 34 32 29 28 30 30 27 24 22 23 24 25 24 25 24
57 58 58 58 57 55 55 54 53 52 50 48 45 44 44 44 42 40 36 34 34 35 34 35 37 37 36 34 35 35 32 31 29 29 28 26 24 24 24 25 25 25 25
57 57 58 58 57 56 55 55 53 52 51 47 44 43 39 37 35 34 34 34 34 34 34 36 37 37 37 35 34 34 34 33 31 29 28 25 24 25 26 26 27 26 26
56 56 57 57 57 57 56 55 54 51 48 46 43 38 35 34 33 33 32 31 31 32 33 36 37 36 36 36 36 35 34 32 31 29 26 26 26 26 27 27 27 27 27

GFSSE_sfc_30mbdewp_039.txt.gz
Dewpoint
65 66 69 69 68 68 68 68 68 67 67 66 65 64 63 62 62 62 61 60 60 60 58 59 59 60 63 64 63 62 63 64 63 62 61 58 57 57 58 60 60 61 63
66 65 68 68 68 68 68 67 67 66 65 65 64 62 63 63 62 61 61 61 60 59 59 61 62 61 61 64 64 63 62 64 63 62 58 55 56 56 57 58 60 60 62
66 65 67 67 67 67 67 66 66 65 64 62 63 64 63 62 61 61 61 60 60 60 62 63 62 61 61 64 65 63 63 63 63 61 56 51 55 57 57 57 57 57 59
66 64 64 67 67 66 66 66 65 63 62 62 63 63 62 62 62 61 61 61 60 61 62 63 64 63 63 65 65 63 62 61 60 57 53 52 54 59 59 58 58 57 56
66 65 65 66 66 66 65 64 63 63 62 63 63 62 62 63 62 62 61 60 59 59 59 61 63 64 64 64 63 61 60 60 59 54 53 54 54 58 59 59 59 60 59
66 65 67 66 66 65 64 64 63 63 63 63 62 62 63 62 62 62 61 60 60 58 56 58 60 62 61 61 60 60 60 59 55 53 54 56 55 58 58 59 60 60 60
66 66 66 66 65 65 64 64 64 63 63 63 63 63 63 63 63 63 62 61 60 59 57 58 59 59 59 59 59 58 58 58 52 51 52 53 56 56 57 57 58 58 57
66 66 66 65 65 65 64 64 64 64 64 63 63 63 64 63 63 62 62 61 61 60 58 58 59 58 58 57 57 56 57 56 50 50 50 51 57 55 55 55 56 56 56
65 64 63 63 62 65 65 65 65 65 64 64 64 64 64 62 61 61 60 59 59 60 59 57 57 58 58 58 57 57 57 57 51 49 48 49 55 53 53 52 53 54 55
62 61 58 58 60 62 63 64 64 64 64 64 63 62 60 60 59 59 58 58 58 58 59 57 56 59 59 57 55 54 54 55 52 51 51 52 54 53 52 50 52 53 53
57 57 55 54 59 62 62 63 63 64 63 62 61 59 58 54 56 55 57 56 56 58 57 58 56 56 55 53 53 51 49 49 50 51 51 56 53 54 52 52 52 51 51
54 54 54 59 57 60 59 61 62 62 60 58 56 56 55 57 55 55 55 56 57 58 57 55 53 49 45 43 43 43 42 45 45 48 51 54 52 53 53 52 51 50 50
55 55 56 58 59 60 58 58 60 59 58 56 57 56 57 57 57 55 55 55 56 51 47 46 45 43 44 42 41 40 39 38 39 43 48 52 52 49 53 52 50 49 49
54 55 57 56 55 57 59 57 58 56 56 55 55 57 58 57 55 55 55 52 50 48 47 45 45 45 44 42 41 40 39 36 36 36 37 46 51 51 47 52 50 48 48
54 55 54 56 56 60 60 57 56 56 56 57 56 58 59 57 56 56 54 51 48 46 46 45 45 43 42 40 39 38 37 37 37 35 36 49 52 51 50 50 50 48 47
53 54 56 56 57 61 58 57 56 56 56 57 56 59 59 58 57 55 52 49 47 46 46 45 44 42 40 40 39 38 35 34 34 36 36 42 51 51 50 46 50 47 45
55 55 55 57 60 61 58 57 56 56 57 57 59 60 58 58 56 53 51 48 47 47 47 46 45 43 40 37 38 37 34 33 32 33 35 41 43 47 46 46 46 43 43
55 54 54 57 60 61 58 57 57 58 60 60 60 59 57 56 54 52 49 48 48 47 46 45 43 40 39 36 37 35 34 32 31 34 37 43 43 40 44 45 43 41 41
57 56 56 58 59 61 59 58 58 59 60 60 60 58 58 56 53 51 49 48 48 46 45 42 42 39 36 35 34 36 35 32 30 30 32 37 37 35 34 39 41 42 37
57 58 58 59 60 60 59 58 58 59 60 60 60 59 57 55 52 50 49 48 46 43 41 40 39 39 38 37 33 34 35 33 31 29 28 27 29 30 28 30 29 32 36
56 57 58 59 60 59 58 57 57 58 59 59 59 59 57 53 50 49 47 45 44 42 40 41 39 39 37 38 35 34 35 34 33 30 28 26 26 26 28 26 24 24 25
54 56 59 59 59 59 58 57 57 57 57 56 55 54 55 51 49 48 45 43 42 41 41 41 40 37 38 38 32 32 26 30 32 33 31 29 28 27 25 26 27 27 26
54 56 58 59 59 58 58 57 55 54 53 53 50 50 51 49 47 46 45 42 42 41 39 38 38 37 33 37 38 30 25 22 30 33 33 30 29 28 27 26 27 26 27
55 56 58 59 58 58 58 56 55 55 53 52 49 48 47 47 45 44 43 42 39 37 36 36 37 37 37 32 37 35 36 34 26 25 30 31 31 29 29 28 27 28 28
56 58 58 59 58 58 57 57 56 55 54 52 48 47 46 45 44 41 39 37 36 35 37 38 39 39 39 37 33 35 36 35 34 29 23 25 27 27 29 30 31 30 28
57 58 59 58 58 58 57 57 56 55 52 50 47 44 43 41 39 37 36 35 35 35 36 39 39 39 38 37 36 36 32 29 28 28 26 26 27 28 29 27 29 30 28

GFSSE_sfc_30mbdewp_042.txt.gz
Dewpoint
62 62 69 69 69 70 70 69 69 69 68 67 66 65 64 63 63 63 62 62 63 63 62 63 65 64 60 60 62 63 63 63 62 60 59 56 57 57 59 60 59 61 63
61 62 69 69 69 69 69 69 68 67 67 65 64 64 63 63 62 62 62 62 62 61 61 61 64 63 59 60 62 62 62 62 60 59 58 56 57 57 58 58 60 60 62
62 60 66 68 69 68 68 67 67 66 65 64 64 64 63 62 63 62 62 62 63 62 62 62 63 63 61 62 63 62 61 60 58 54 51 48 54 59 59 58 58 58 59
63 61 61 68 68 67 67 66 66 64 63 64 64 63 62 63 63 63 63 63 65 65 62 62 63 63 62 63 63 61 60 59 57 52 48 49 52 58 59 59 59 58 57
63 61 62 68 67 67 66 66 64 63 64 64 63 63 63 63 63 62 62 63 65 65 64 63 64 64 63 63 62 61 60 57 54 48 48 50 51 57 59 60 58 59 59
63 62 66 67 66 66 65 64 64 64 64 63 63 64 63 63 62 62 62 61 62 63 64 64 63 62 61 61 61 61 58 55 49 47 49 52 53 57 57 58 58 58 57
65 64 65 66 66 65 65 64 64 64 63 63 64 63 63 63 63 63 62 61 61 61 62 62 60 60 60 60 60 59 57 52 43 44 47 50 54 55 54 55 56 56 56
65 65 66 65 65 65 64 64 64 64 63 64 64 64 64 64 64 63 63 61 60 61 62 60 60 60 59 59 58 58 55 51 43 43 46 49 55 53 53 53 54 54 55
66 65 65 64 63 63 65 65 64 64 64 65 64 64 64 63 62 61 61 61 60 58 60 60 60 60 59 59 59 58 55 51 46 47 45 47 53 51 50 51 52 53 54
63 63 62 60 58 59 63 65 65 65 65 65 64 62 61 60 60 60 59 60 60 59 59 60 60 59 58 56 55 54 52 50 46 45 46 50 53 52 50 51 52 52 52
58 60 59 59 58 57 60 63 64 65 64 63 61 59 55 50 50 51 55 58 60 60 59 60 59 57 55 55 53 49 48 43 43 44 45 55 54 53 52 51 51 51 51
54 56 57 55 56 57 60 60 60 59 55 56 55 52 48 51 49 50 55 59 59 59 57 56 53 49 48 45 42 42 42 42 41 41 46 54 53 54 53 52 50 50 51
54 54 54 55 56 57 60 60 60 58 58 54 54 51 53 52 52 51 53 53 53 52 48 47 46 45 45 43 43 42 41 39 38 37 44 52 53 52 54 52 50 50 50
53 55 52 52 51 55 58 57 56 51 52 51 52 52 53 51 52 51 52 54 52 51 49 48 47 47 45 44 44 43 41 39 37 33 40 50 50 51 49 53 50 49 49
54 55 55 56 55 55 55 56 56 53 53 50 53 52 51 50 52 52 53 52 51 50 48 47 46 45 45 43 42 41 39 37 33 29 31 46 51 50 50 47 51 49 47
53 53 55 54 53 56 53 53 56 55 52 54 51 54 55 52 53 55 55 52 50 48 48 47 46 45 43 42 42 39 35 31 32 33 30 39 48 50 49 47 51 49 47
49 51 51 53 54 53 55 54 50 52 51 50 51 58 58 57 57 55 54 51 49 49 49 48 47 45 42 39 39 34 31 31 31 32 31 33 37 46 48 47 48 46 46
50 52 53 52 55 58 57 55 49 52 51 50 55 59 60 59 57 56 53 51 50 49 48 47 45 42 41 37 33 30 30 31 31 32 33 34 33 34 45 46 45 43 42
51 52 54 55 55 59 59 55 54 53 53 53 58 59 59 58 56 54 52 51 51 49 48 46 44 42 37 32 29 30 31 30 30 28 31 33 34 33 32 41 41 41 39
52 52 53 54 58 59 59 57 52 50 52 57 59 59 59 57 55 54 52 52 50 48 46 44 42 38 33 31 24 27 33 32 31 31 30 27 28 28 27 28 28 31 35
54 53 54 56 57 58 60 56 51 49 52 58 60 61 59 57 56 54 52 51 48 46 45 44 40 38 35 31 32 35 35 35 34 31 30 28 28 28 29 27 26 24 27
54 55 55 55 56 58 58 57 51 52 52 55 58 60 60 58 55 53 51 49 47 46 44 42 39 35 31 33 34 34 34 33 33 33 31 31 31 29 27 27 27 27 28
52 54 55 55 57 58 57 57 53 55 57 57 59 58 58 56 54 52 50 48 46 44 43 41 38 32 34 37 37 34 29 26 27 29 34 32 30 30 29 27 27 28 28
51 52 53 55 57 57 58 56 54 52 51 54 56 55 54 55 53 50 49 47 46 43 40 38 34 36 35 36 36 36 32 27 23 24 31 31 31 29 28 29 28 29 29
50 52 54 55 57 57 58 57 56 55 53 54 56 53 53 52 51 49 47 46 44 40 38 34 37 37 39 38 36 31 32 31 32 28 22 21 24 26 27 28 29 30 29
51 53 54 55 56 58 59 59 59 58 57 56 54 51 50 50 49 47 46 45 42 37 37 38 39 40 39 37 32 30 28 28 25 25 25 25 24 24 26 28 28 28 28

GFSSE_sfc_30mbdewp_045.txt.gz
Dewpoint
59 63 70 71 70 70 70 70 69 69 68 68 67 66 65 65 64 63 64 65 65 65 65 64 61 60 61 62 62 62 61 61 60 60 59 57 57 58 59 61 59 61 63
60 63 69 70 70 70 70 69 69 68 68 66 65 65 65 64 63 64 65 65 65 64 65 62 59 59 59 60 61 60 59 59 61 60 59 58 59 58 58 59 60 59 62
61 63 68 69 70 70 69 69 68 67 66 65 65 64 64 63 64 64 64 64 64 64 64 60 59 60 60 61 61 59 58 56 55 56 51 49 56 59 59 60 60 58 58
62 62 67 69 69 69 68 68 67 65 65 64 64 63 63 64 64 64 65 65 64 64 63 61 60 60 61 61 61 59 57 55 54 54 48 48 52 60 60 59 59 59 57
63 60 67 69 68 68 67 66 65 64 64 64 63 64 64 64 64 65 66 66 65 64 63 62 60 61 61 62 61 59 57 56 56 48 48 50 51 57 57 58 57 59 59
64 62 67 68 67 67 66 65 65 64 64 64 64 64 64 64 63 64 66 66 66 65 64 61 61 60 62 61 59 57 56 52 54 47 49 52 52 55 55 56 57 57 56
63 65 66 67 67 66 65 65 65 64 64 64 64 64 64 63 64 63 64 65 66 65 63 60 60 60 61 60 57 55 53 52 42 46 48 51 53 53 53 54 55 55 56
65 66 66 66 66 65 65 65 65 64 65 65 64 64 64 64 64 63 63 64 64 64 62 61 61 60 59 59 57 54 52 51 43 46 47 49 53 52 52 53 53 54 55
66 66 65 63 65 65 65 65 64 64 65 65 65 65 65 64 63 62 61 62 63 62 61 60 60 59 59 59 56 51 49 48 46 46 45 47 52 51 51 52 52 53 53
64 63 61 60 63 64 64 65 65 65 65 65 64 63 62 61 60 60 59 60 61 61 61 60 59 59 58 56 54 50 49 49 44 44 47 51 52 51 51 51 51 52 52
61 61 60 59 56 59 63 65 65 65 64 63 62 60 56 53 50 53 57 61 60 61 61 59 58 55 53 51 48 47 48 42 40 41 47 56 54 53 52 51 50 51 52
57 58 56 54 54 54 54 59 61 60 59 57 56 55 51 52 51 52 58 60 59 60 60 58 53 50 49 45 44 44 41 41 39 39 49 54 54 54 53 51 50 51 51
56 56 56 54 54 55 56 58 58 57 55 55 55 55 53 53 53 52 54 53 54 52 48 48 47 47 48 45 45 43 41 39 37 35 46 50 52 53 54 52 50 51 50
53 54 55 57 57 57 57 57 58 57 56 55 53 55 55 52 53 52 51 52 51 51 49 49 48 50 48 47 46 43 43 39 34 30 43 45 49 50 51 53 51 50 49
51 52 53 54 55 55 56 55 54 52 51 50 52 53 54 52 53 51 51 52 51 52 51 49 49 48 47 46 43 42 38 34 32 29 38 43 47 48 47 49 51 50 48
51 51 52 54 55 54 53 55 57 57 55 54 53 55 54 50 52 51 53 52 52 51 50 49 48 48 46 43 44 40 34 31 32 33 29 42 43 49 49 46 53 50 48
53 54 54 54 53 50 51 51 50 57 54 54 53 56 55 54 55 53 54 53 51 51 50 49 49 48 44 40 40 35 32 32 30 32 31 33 43 46 48 48 51 50 48
53 50 50 46 46 53 51 50 49 52 51 49 50 54 56 54 55 56 54 53 52 52 51 50 49 46 42 39 36 33 32 33 32 32 33 34 33 35 47 48 46 44 43
50 48 50 52 53 55 53 53 50 49 50 47 49 52 57 58 58 57 55 54 54 51 50 50 48 45 41 36 34 33 35 34 32 28 32 34 34 32 33 44 44 42 40
50 50 50 52 54 57 58 53 51 48 51 48 49 52 57 58 58 57 54 54 54 51 51 49 47 43 38 35 29 28 36 37 34 33 33 31 29 31 30 29 32 35 37
50 52 52 53 52 57 57 52 48 46 47 48 51 53 56 57 57 56 54 54 54 51 50 48 46 41 38 35 35 39 39 39 38 35 33 31 30 30 30 30 29 27 31
50 50 51 52 53 57 57 55 50 47 45 48 51 57 59 58 57 56 55 54 53 50 49 48 44 40 38 36 39 40 39 38 37 37 33 32 33 33 29 29 29 28 29
49 50 50 52 54 54 54 54 52 48 47 48 51 54 59 58 57 56 55 53 52 50 49 47 44 41 36 39 41 40 37 35 31 34 35 35 34 33 32 31 29 29 29
50 51 52 52 53 55 54 54 51 47 48 51 53 57 58 59 58 55 54 53 51 50 48 47 44 40 38 39 41 39 39 37 31 28 32 35 35 34 32 31 30 30 30
51 51 53 52 52 53 55 54 54 51 50 51 53 55 57 56 57 55 53 52 51 50 47 45 40 40 41 41 41 41 37 36 35 34 31 28 30 27 28 29 29 30 30
46 51 53 52 52 53 54 54 55 54 54 53 55 55 54 55 55 54 52 52 52 49 46 43 40 43 42 42 40 35 33 30 31 31 29 27 27 27 26 27 29 29 28

GFSSE_sfc_30mbdewp_048.txt.gz
Dewpoint
63 68 71 70 70 70 70 70 69 69 69 68 67 66 66 65 65 65 66 67 67 64 61 61 61 61 60 59 60 60 61 62 61 61 60 58 57 58 59 61 62 63 64
64 68 70 70 70 70 70 69 69 69 68 67 66 66 65 65 66 66 67 67 67 62 60 60 59 59 57 59 60 61 62 62 62 61 59 58 58 59 60 59 61 60 62
62 69 70 70 70 70 69 69 69 68 67 66 66 65 64 65 66 66 66 66 66 61 60 60 59 57 57 59 59 58 58 59 61 61 56 58 59 58 60 60 59 58 59
66 67 69 70 70 69 69 68 68 66 66 66 65 64 65 65 65 65 65 66 65 62 60 60 59 58 58 59 59 59 59 58 59 53 51 53 56 59 57 59 60 58 57
64 66 68 69 68 69 68 67 66 66 65 64 64 64 65 65 66 66 66 65 65 63 60 59 59 59 60 60 59 57 55 54 55 51 52 53 54 55 56 57 57 58 56
63 66 68 68 67 67 67 66 66 65 65 64 65 65 65 66 67 67 66 65 65 63 60 59 59 60 59 58 56 56 55 56 52 51 52 54 54 54 55 56 56 56 56
66 67 68 67 67 67 66 66 65 65 65 65 65 65 65 66 67 67 66 66 66 63 60 59 60 60 58 55 54 53 52 51 48 49 52 54 54 53 53 54 55 55 55
66 67 67 67 67 66 66 66 65 65 65 65 65 65 65 65 65 66 67 66 65 63 62 62 61 59 57 54 51 49 51 51 48 49 51 53 54 52 52 53 54 54 54
66 66 66 66 66 66 65 65 65 66 65 65 65 65 65 63 64 65 66 65 63 62 62 61 60 59 57 51 48 49 49 51 51 48 49 52 52 52 52 51 52 53 53
64 63 63 63 63 61 63 65 65 65 66 66 64 63 62 62 62 63 63 62 62 61 60 60 59 58 55 51 47 46 48 48 46 49 52 54 52 51 51 51 51 52 52
61 61 61 61 61 61 61 64 65 65 64 63 62 60 57 55 55 57 61 62 62 61 60 59 56 54 50 46 44 45 47 44 44 51 56 56 53 52 51 50 51 52 51
57 59 60 59 57 57 59 61 63 63 61 60 58 55 53 53 55 57 60 60 61 60 59 55 52 51 49 45 45 46 43 43 46 51 55 56 55 54 53 51 51 51 51
56 56 56 57 56 56 57 58 57 58 58 58 57 56 57 56 57 59 58 57 58 57 52 51 52 51 50 49 47 45 44 43 40 44 51 52 53 55 54 52 51 51 51
56 54 54 55 55 55 55 56 56 58 56 56 56 58 57 56 56 56 55 56 53 52 49 50 50 52 50 48 46 45 43 37 35 42 45 46 48 50 54 53 51 51 50
53 55 56 56 56 55 54 55 56 56 55 53 53 56 56 55 55 54 55 55 54 54 52 53 52 50 49 47 45 43 38 35 35 39 43 41 43 46 46 52 52 51 49
52 53 55 56 56 55 55 53 55 54 53 50 50 56 54 56 54 55 57 56 56 54 54 52 51 50 50 46 45 39 36 35 34 34 42 42 43 46 48 44 51 52 49
51 53 55 55 56 55 54 56 55 54 55 55 56 56 57 57 54 57 55 56 54 54 53 53 51 51 47 45 42 37 37 34 35 33 34 43 45 48 49 51 51 52 50
51 53 53 54 54 54 55 56 54 53 54 55 55 57 56 57 56 56 57 56 55 54 53 52 51 50 48 44 40 38 35 35 34 33 35 36 41 46 50 48 46 46 45
51 53 52 52 52 51 52 43 44 47 54 55 54 56 58 57 58 58 58 57 56 54 54 53 52 51 46 42 39 37 37 37 36 34 34 35 36 36 46 48 46 44 42
51 51 50 49 49 52 52 43 47 51 53 53 52 53 57 59 59 59 58 56 56 55 54 53 51 48 46 42 36 33 38 39 38 36 36 34 34 33 32 39 42 43 43
49 49 48 46 49 54 54 51 53 50 52 53 52 52 58 58 59 59 58 57 56 55 54 53 51 47 41 39 36 37 40 42 40 39 37 36 34 32 32 31 32 32 41
50 50 51 52 52 55 55 55 54 52 50 51 52 53 59 58 59 59 58 57 56 55 54 52 50 45 44 41 40 43 41 41 42 41 39 35 34 34 34 32 33 30 32
52 52 52 53 53 54 57 57 55 51 49 48 50 56 59 59 59 58 58 57 57 56 53 52 51 47 43 41 42 42 40 39 35 41 39 38 38 36 35 35 32 32 31
51 53 53 53 53 53 57 56 55 51 49 47 49 55 59 60 59 58 58 57 56 55 53 52 50 47 45 43 45 43 41 40 35 33 39 38 39 36 36 37 33 32 32
51 52 53 52 52 54 55 56 55 53 49 51 50 54 57 59 59 59 58 57 56 55 53 52 49 48 45 44 43 42 42 42 40 37 35 35 38 37 36 38 33 34 32
51 53 53 52 52 54 55 54 56 55 53 52 55 57 58 58 59 58 57 56 56 54 53 52 49 45 44 43 42 40 38 37 35 36 35 34 33 32 32 34 33 32 32